This demonstration page uses our WeatherBlox Daily Observations layout. Learn more.

Left ArrowRight Arrow

Hourly Observations for May 31, 2020

Temp ( °F °C ) Dew Point ( °F °C ) Humidity (%) Winds ( mph kmh ) Pressure ( in mb ) Visibility ( mi km ) Precip ( " mm )
12:52 am 00:52 Cloudy 59 15 54 12.2 83 83 SSE 6 9 30.23 1024 10 16 0.00 0.00
1:52 am 01:52 Cloudy 60 15.6 54 12.2 80 80 Calm 30.23 1024 10 16 0.00 0.00
2:52 am 02:52 Cloudy 60 15.6 53 11.7 78 78 Calm 30.22 1024 10 16 0.00 0.00
3:52 am 03:52 Cloudy 60 15.6 54 12.2 80 80 Calm 30.22 1023 10 16 0.00 0.00
4:52 am 04:52 Cloudy 59 15 54 12.2 83 83 S 6 9 30.22 1023 10 16 0.00 0.00
5:52 am 05:52 Cloudy 59 15 54 12.2 83 83 SE 6 9 30.22 1023 10 16 0.00 0.00
6:52 am 06:52 Cloudy with Light Rain 60 15.6 54 12.2 80 80 SSE 8 13 30.23 1024 10 16 0.00 0.00
7:52 am 07:52 Cloudy 59 15 55 12.8 87 87 SSE 8 13 30.24 1024 10 16 0.02 0.51
8:52 am 08:52 Cloudy 59 15 55 12.8 87 87 SSE 10 17 30.25 1024 10 16 0.00 0.00
9:52 am 09:52 Cloudy 61 16.1 56 13.3 84 84 SE 10 17 30.26 1025 10 16 0.00 0.00
10:52 am 10:52 Mostly Cloudy 63 17.2 56 13.3 78 78 SE 15 24 30.24 1024 10 16 0.00 0.00
11:52 am 11:52 Partly Cloudy 69 20.6 56 13.3 63 63 SSE 22 35 30.22 1023 10 16 0.00 0.00
12:52 pm 12:52 Mostly Sunny 72 22.2 58 14.4 61 61 SE 22 35 30.20 1023 10 16 0.00 0.00
1:52 pm 13:52 Mostly Sunny 74 23.3 57 13.9 56 56 SSE 22 35 30.17 1022 10 16 0.00 0.00
2:52 pm 14:52 Mostly Sunny 76 24.4 58 14.4 54 54 SE 21 33 30.14 1021 10 16 0.00 0.00
3:52 pm 15:52 Mostly Sunny 78 25.6 58 14.4 50 50 SSE 22 35 30.10 1019 10 16 0.00 0.00
4:52 pm 16:52 Partly Cloudy 77 25 59 15 54 54 SSE 25 41 30.08 1019 10 16 0.00 0.00
5:52 pm 17:52 Partly Cloudy 78 25.6 59 15 52 52 SE 22 35 30.05 1018 10 16 0.00 0.00
6:52 pm 18:52 Partly Cloudy 76 24.4 59 15 56 56 SSE 21 33 30.02 1017 10 16 0.00 0.00
7:52 pm 19:52 Partly Cloudy 75 23.9 59 15 58 58 SSE 16 26 30.03 1017 10 16 0.00 0.00
8:52 pm 20:52 Partly Cloudy 73 22.8 59 15 62 62 SSE 13 20 30.04 1017 10 16 0.00 0.00
9:52 pm 21:52 Mostly Cloudy 72 22.2 59 15 64 64 SSE 16 26 30.04 1017 10 16 0.00 0.00
10:52 pm 22:52 Mostly Cloudy 71 21.7 59 15 66 66 SSE 14 22 30.05 1018 10 16 0.00 0.00
11:52 pm 23:52 Mostly Cloudy 72 22.2 59 15 64 64 SSE 16 26 30.04 1017 10 16 0.00 0.00

Powered by AerisWeather